Simultaneous Nadir Overpasses (SNOs) Predictions

Prediction of SNOs between AQUA and GOES-15 Satellite Orbit:

Table of predicted SNOs for the next 14.0 days since TLE Epoch: 7/1/2016
Index Date Time (AQUA) AQUA Lat,Lon GOES-15 Lat,Lon Distance(km) Time Diff (sec)
1 07/01/2016 22:34:52 0.22,-134.90 0.11,-135.53 70.67 80
2 07/03/2016 22:22:40 0.84,-131.95 0.11,-135.53 406.37 80
3 07/04/2016 10:43:56 0.20,-137.11 -0.12,-135.53 179.94 80
4 07/06/2016 10:31:44 -0.42,-134.15 -0.12,-135.52 155.42 80
5 07/06/2016 22:53:09 -0.65,-139.36 0.14,-135.51 436.23 80
6 07/08/2016 10:19:32 -1.05,-131.20 -0.12,-135.51 490.64 80
7 07/08/2016 22:40:57 -0.02,-136.40 0.14,-135.50 101.09 80
8 07/10/2016 22:28:44 0.55,-133.43 0.14,-135.49 233.79 80
9 07/11/2016 10:50:00 0.49,-138.60 -0.15,-135.49 352.81 80
10 07/13/2016 10:37:48 -0.14,-135.64 -0.15,-135.47 18.83 80
11 07/15/2016 10:25:35 -0.72,-132.67 -0.16,-135.44 314.82 80




NCC Satellite Simultaneous Nadir Overpasses (SNOs) Prediction Service
